This demonstration page uses our WeatherBlox Daily Observations layout. Learn more.

Left ArrowRight Arrow

39.01783, -85.05884

Hourly Observations for May 4, 2018

Temp ( °F °C ) Dew Point ( °F °C ) Humidity (%) Winds ( mph kmh ) Pressure ( in mb ) Visibility ( mi km ) Precip ( " mm )
12:52 am 00:52 Cloudy 68 20 60 15.6 76 76 S 6 9 29.93 1014 10 16 0.00 0.00
1:52 am 01:52 Cloudy 67 19.4 60 15.6 79 79 SSW 6 9 29.93 1014 10 16 0.00 0.00
2:52 am 02:52 Mostly Cloudy 70 21.1 60 15.6 71 71 SW 9 15 29.92 1013 10 16 0.00 0.00
3:52 am 03:52 Cloudy 71 21.7 59 15 66 66 SSW 10 17 29.92 1013 10 16 0.00 0.00
4:52 am 04:52 Cloudy 72 22.2 58 14.4 61 61 SW 15 24 29.92 1013 10 16 0.00 0.00
5:52 am 05:52 Cloudy 72 22.2 58 14.4 61 61 SW 14 22 29.92 1013 10 16 0.00 0.00
6:52 am 06:52 Cloudy 70 21.1 59 15 68 68 SW 14 22 29.93 1014 10 16 0.00 0.03
7:52 am 07:52 Mostly Cloudy 72 22.2 59 15 64 64 SW 14 22 29.94 1014 10 16 0.00 0.00
8:52 am 08:52 Mostly Cloudy 72 22.2 60 15.6 66 66 WSW 14 22 29.95 1014 10 16 0.00 0.00
9:52 am 09:52 Cloudy 73 22.8 61 16.1 66 66 SW 16 26 29.94 1014 10 16 0.00 0.00
10:52 am 10:52 Mostly Cloudy 76 24.4 62 16.7 62 62 WSW 13 20 29.93 1013 10 16 0.00 0.00
11:52 am 11:52 Mostly Cloudy 78 25.6 62 16.7 58 58 SW 22 35 29.92 1013 10 16 0.00 0.00
12:52 pm 12:52 Cloudy 78 25.6 63 17.2 60 60 WSW 17 28 29.92 1013 10 16 0.00 0.00
1:52 pm 13:52 Cloudy 77 25 61 16.1 58 58 W 15 24 29.93 1014 10 16 0.00 0.00
2:52 pm 14:52 Cloudy 78 25.6 60 15.6 54 54 WSW 12 19 29.94 1014 10 16 0.00 0.00
3:52 pm 15:52 Cloudy 78 25.6 59 15 52 52 SW 14 22 29.93 1014 10 16 0.00 0.00
4:52 pm 16:52 Cloudy 77 25 60 15.6 56 56 SW 15 24 29.92 1013 10 16 0.00 0.00
5:48 pm 17:48 Cloudy with Light Rain 66 19 61 16 83 83 WNW 17 28 29.97 1015 4 6 0.02 0.51
5:52 pm 17:52 Cloudy with Light Rain 66 18.9 60 15.6 81 81 WNW 15 24 29.97 1015 5 8 0.02 0.51
6:52 pm 18:52 Mostly Cloudy 66 18.9 62 16.7 87 87 SW 3 6 29.97 1015 10 16 0.04 1.02
7:52 pm 19:52 Cloudy 66 18.9 62 16.7 87 87 WSW 3 6 29.98 1015 10 16 0.00 0.00
8:52 pm 20:52 Mostly Cloudy 66 18.9 62 16.7 87 87 Calm 30.01 1016 10 16 0.00 0.00
9:52 pm 21:52 Cloudy 64 17.8 62 16.7 93 93 Calm 30.03 1017 10 16 0.00 0.00
10:52 pm 22:52 Cloudy 66 18.9 57 13.9 73 73 NNE 12 19 30.05 1018 10 16 0.00 0.00
11:52 pm 23:52 Cloudy 65 18.3 56 13.3 73 73 ENE 10 17 30.05 1018 10 16 0.00 0.00

Powered by AerisWeather